Location: Unspecified
(0.0000°N, 0.0000°E)
Time: 14:31:42
(UTC+00:00)

Envisat - Pass Details

Date: 17 May 2019
Orbit: 764 x 766 km, 98.1° (Epoch: 24 August)

Event Time Altitude Azimuth Distance (km) Brightness Sun altitude
Rises 18:46:44 0° 165° (SSE) 3,228 5.9 -11.9°
Reaches altitude 10° 18:49:03 10° 163° (SSE) 2,300 5.1 -12.4°
Maximum altitude 18:54:06 74° 78° (ENE) 795 2.9 -13.6°
Drops below altitude 10° 18:59:08 10° 353° (N) 2,289 5.8 -14.8°
Sets 19:01:26 0° 352° (N) 3,212 6.6 -15.3°
